Wind_Speed
15 14 13 12 12 12 11 11 10 8 6 6 6 5 6 6 7 8 8 9 10 10 11 12 13 14 15 15 15 15 14 14 15 16 16 17 18 19 20 21 22 23 23
16 15 14 13 13 12 13 12 10 8 6 6 5 5 4 4 5 6 6 7 8 10 11 13 15 16 16 16 15 15 15 14 14 16 18 19 21 21 22 23 24 25 26
18 17 15 14 14 12 12 11 9 7 6 5 4 3 3 3 3 4 4 5 7 9 12 14 15 16 16 16 14 13 13 14 16 19 20 21 23 27 27 28 28 29 30
18 17 17 16 14 13 11 9 7 5 4 3 2 1 1 0 1 1 3 5 8 10 12 14 15 15 15 15 14 13 13 15 19 21 24 25 26 30 31 31 31 31 30
19 18 17 16 14 12 10 8 6 4 2 1 2 2 2 2 2 2 3 6 9 11 12 13 16 16 15 15 14 13 14 17 21 24 27 28 29 30 30 30 27 26 28
20 20 18 16 15 14 12 10 7 4 2 2 3 4 4 4 4 4 5 7 9 11 13 14 16 18 16 16 13 13 16 19 24 27 29 29 29 31 32 25 25 27 27
22 21 18 17 16 15 12 9 5 3 3 3 5 6 6 6 5 5 7 9 10 12 13 14 17 18 16 16 13 14 17 22 26 30 29 30 31 32 29 25 27 28 27
24 22 17 17 16 14 11 7 3 4 6 5 6 7 7 7 7 7 9 10 12 13 14 16 17 19 16 14 12 14 17 22 27 31 31 31 31 31 29 27 28 28 27
25 22 18 16 17 15 11 5 3 4 6 7 7 8 8 9 9 9 11 12 13 15 15 17 18 18 15 13 13 16 18 21 26 31 32 32 31 30 29 29 28 27 27
26 23 20 17 16 15 11 5 2 2 5 7 7 8 9 10 11 11 12 13 15 17 17 19 20 17 16 15 15 16 18 21 26 29 31 32 31 29 29 28 28 28 28
25 24 22 19 17 16 11 6 3 2 4 7 9 10 12 12 12 13 13 15 16 18 18 20 20 18 18 16 16 17 19 21 24 27 30 31 31 30 29 26 26 27 27
26 28 24 22 20 17 14 9 7 6 6 8 10 11 13 14 14 14 15 16 18 18 19 20 20 19 19 18 18 19 20 21 24 26 28 30 31 31 29 28 27 25 25
31 31 23 24 22 21 18 14 11 10 10 10 12 12 14 15 16 17 18 18 18 19 21 20 22 20 21 20 20 21 22 22 26 26 28 29 30 31 30 29 28 26 24
30 34 37 30 26 24 21 19 16 14 13 12 13 13 15 15 17 18 19 19 20 20 21 22 22 22 23 22 22 22 23 25 27 28 29 30 31 32 32 31 28 27 25
36 32 32 34 30 27 24 22 20 18 18 16 16 18 18 19 18 20 20 20 20 21 22 23 23 23 23 22 23 24 25 26 27 30 30 31 31 32 33 33 30 28 25
37 35 33 32 30 27 25 25 24 24 22 21 22 22 21 22 22 21 22 21 22 21 23 24 24 25 24 24 25 27 27 28 29 30 33 33 34 34 33 32 31 28 23
44 40 37 33 33 31 30 29 30 28 25 23 25 24 23 24 23 23 24 24 24 24 24 25 26 26 26 26 27 28 29 30 31 32 33 34 36 35 35 32 28 26 21
47 44 45 40 39 36 34 33 35 37 32 28 27 30 27 28 26 25 25 26 27 27 27 27 28 29 29 29 29 31 31 32 33 34 35 36 36 35 36 34 28 25 22
53 52 49 45 45 44 43 41 42 39 35 34 30 30 30 31 30 28 27 28 29 30 30 30 30 31 32 33 33 33 34 35 36 36 35 36 37 38 38 36 30 26 23
56 52 49 48 44 43 40 42 43 44 41 36 36 33 33 34 34 31 30 30 31 32 32 32 32 33 34 34 36 36 38 38 38 37 37 37 37 39 39 37 31 27 25
55 57 54 49 47 48 46 45 46 47 46 46 40 38 39 37 37 34 33 33 33 33 34 34 34 35 35 37 38 39 39 39 39 39 39 39 39 40 38 34 32 29 27
53 57 54 54 54 52 52 52 55 55 50 46 43 40 39 38 37 35 35 35 35 36 36 36 36 38 38 39 41 42 42 40 39 38 39 40 40 40 35 32 30 30 30
49 50 53 51 48 52 60 59 59 70 60 48 54 42 36 43 38 37 37 39 38 39 39 39 39 40 41 42 43 44 43 41 40 39 40 41 41 38 34 31 28 29 30
52 49 47 48 49 50 47 62 43 38 31 30 34 47 51 55 50 39 44 41 40 41 40 40 41 42 43 44 46 45 45 44 43 41 43 44 39 34 34 34 33 31 31
66 50 54 58 57 56 31 38 30 25 29 27 18 23 30 28 32 41 38 39 41 41 42 41 43 44 45 46 46 46 46 46 46 45 43 39 37 37 38 38 37 38 39
50 66 57 52 50 48 40 36 51 36 31 24 25 25 24 27 33 36 38 40 42 42 44 44 45 46 47 48 48 49 49 49 50 49 47 42 39 41 41 42 42 42 43
Wind_Direction
197 194 186 178 170 165 161 157 153 146 136 125 115 97 82 76 72 63 55 51 47 39 32 23 18 15 11 8 5 2 356 355 357 0 2 359 355 350 344 337 330 321 317
198 195 187 179 172 167 163 159 155 150 145 135 124 108 97 84 70 61 53 41 31 21 15 14 12 6 1 358 354 353 356 357 2 4 1 356 348 340 333 324 318 313 308
198 189 180 177 172 167 164 160 158 156 152 144 136 130 129 105 77 53 38 27 17 12 11 10 6 5 5 3 358 358 358 0 1 357 351 347 341 332 329 325 321 319 315
195 187 175 172 168 163 164 160 158 157 157 157 161 175 184 123 51 24 8 2 3 9 10 12 14 10 7 1 355 354 1 2 359 353 347 341 336 333 331 327 323 322 319
188 182 174 166 166 163 160 153 147 145 148 202 250 254 259 263 274 301 334 347 355 360 2 2 5 360 357 352 351 359 3 1 359 354 347 340 338 336 333 331 334 340 335
185 178 176 171 166 160 152 147 133 112 53 309 272 265 261 266 280 300 315 330 341 345 350 351 352 352 348 346 350 359 0 3 359 353 346 344 342 343 343 349 344 341 339
185 180 180 171 164 160 157 147 125 65 9 309 277 261 257 257 269 285 297 312 325 332 338 342 346 346 342 341 349 355 358 360 358 353 350 350 349 349 347 345 347 345 343
186 184 180 177 174 171 168 155 115 52 17 332 283 268 261 263 270 281 289 299 313 320 323 331 338 339 335 337 342 348 356 359 360 358 356 354 351 349 347 345 346 345 341
189 190 186 185 185 180 176 166 123 54 15 345 306 278 272 271 274 279 286 294 305 310 316 324 332 334 331 332 335 343 349 353 357 359 359 357 352 348 346 344 345 342 338
195 194 195 192 192 188 188 175 147 27 349 331 308 292 282 278 278 283 289 297 303 303 310 321 328 327 328 328 328 335 341 346 353 355 358 357 352 346 343 342 343 342 339
198 203 205 203 203 199 201 204 215 280 310 316 308 297 292 286 283 285 289 295 301 303 307 313 323 322 321 321 320 327 333 341 346 351 356 355 351 344 339 338 340 341 340
203 206 211 212 211 209 212 221 231 241 281 304 307 302 292 292 288 290 292 297 298 302 303 307 317 316 314 313 312 318 326 335 341 345 351 350 348 344 336 333 331 335 337
210 219 215 220 218 216 220 227 234 248 263 296 297 298 289 287 288 291 296 294 295 299 303 308 312 310 311 308 308 314 321 330 333 340 344 345 342 340 335 331 326 329 332
217 218 223 229 224 222 226 232 237 248 259 277 290 286 282 282 285 288 296 297 295 293 297 303 306 307 310 306 306 313 319 322 327 331 338 339 337 335 333 330 327 329 331
217 217 219 223 226 227 229 236 243 247 254 267 289 287 278 276 278 283 290 296 295 295 295 299 302 303 306 302 305 311 313 314 318 327 331 336 336 331 329 329 327 325 329
218 216 219 223 226 227 232 240 245 251 258 266 290 285 271 275 276 276 281 289 292 291 290 293 298 303 303 300 304 307 310 311 315 321 327 330 332 334 329 326 325 324 326
219 224 224 222 230 231 237 243 248 252 258 266 276 283 276 271 274 279 281 285 288 288 288 289 294 300 302 300 302 305 308 309 312 315 320 325 329 331 331 322 322 320 323
219 222 230 230 233 235 239 245 253 259 256 263 273 280 272 269 272 277 282 284 285 285 287 290 293 296 298 299 301 303 306 308 310 313 317 320 322 326 326 320 314 313 314
224 224 227 231 238 242 245 247 251 253 256 266 273 273 260 264 271 275 279 282 283 284 286 289 294 297 298 298 299 301 303 304 307 310 314 318 321 322 321 316 307 304 308
224 227 230 232 234 237 238 244 247 253 255 263 267 266 267 263 270 274 277 280 281 284 285 287 291 294 296 298 299 300 301 304 307 309 312 316 318 319 316 310 302 298 298
232 228 229 231 233 239 243 246 246 248 256 263 261 263 268 264 266 271 275 277 279 281 284 286 288 291 294 297 299 297 300 306 308 309 311 313 315 314 311 305 299 293 289
237 232 237 234 237 243 247 248 249 246 253 257 259 259 265 264 264 269 276 275 278 281 283 285 289 291 293 294 296 297 299 302 303 305 306 308 309 309 307 303 297 291 287
238 246 239 242 248 247 252 254 259 244 250 255 252 252 261 264 266 269 271 278 278 279 280 283 287 288 291 292 293 293 295 297 299 301 303 304 304 303 301 303 295 287 285
237 243 246 249 244 254 238 253 243 250 260 278 261 256 256 257 261 272 270 273 276 278 280 283 286 289 290 291 292 296 296 297 297 298 300 300 299 294 295 299 301 291 286
235 245 247 247 252 249 250 242 269 281 269 268 256 263 262 272 272 266 268 271 275 280 282 282 285 287 290 293 296 295 295 295 295 295 295 295 294 292 292 291 293 292 289
224 231 250 260 248 256 275 269 289 276 278 266 258 267 272 272 271 268 269 274 278 280 280 284 286 289 293 295 294 293 292 292 294 295 296 293 289 289 286 285 286 287 289
Height
5863 5865 5866 5867 5868 5869 5870 5871 5873 5874 5875 5875 5876 5876 5876 5876 5876 5875 5875 5875 5874 5874 5873 5873 5872 5872 5871 5869 5868 5867 5866 5865 5863 5863 5861 5860 5859 5857 5856 5853 5852 5849 5848
5862 5863 5865 5867 5868 5869 5870 5871 5872 5873 5874 5875 5876 5876 5876 5876 5876 5876 5875 5875 5875 5874 5874 5873 5872 5871 5870 5869 5868 5866 5865 5864 5863 5862 5861 5859 5857 5855 5853 5850 5847 5845 5843
5861 5862 5864 5866 5867 5869 5871 5871 5872 5874 5874 5875 5875 5876 5876 5876 5876 5875 5875 5875 5874 5874 5874 5873 5872 5871 5870 5868 5867 5866 5864 5863 5862 5860 5858 5857 5854 5851 5849 5846 5843 5841 5838
5860 5862 5863 5865 5867 5868 5870 5871 5872 5874 5874 5875 5875 5875 5876 5876 5875 5875 5875 5875 5874 5874 5874 5873 5872 5871 5869 5868 5867 5865 5864 5863 5861 5859 5856 5853 5851 5848 5845 5842 5839 5836 5833
5858 5861 5862 5864 5866 5867 5869 5870 5872 5873 5874 5874 5874 5875 5875 5875 5875 5875 5874 5875 5874 5874 5873 5872 5871 5870 5868 5867 5866 5865 5863 5862 5859 5856 5854 5850 5848 5844 5840 5837 5833 5831 5828
5858 5860 5862 5863 5864 5867 5868 5870 5871 5871 5872 5872 5873 5873 5874 5874 5875 5874 5874 5874 5874 5873 5872 5871 5870 5868 5867 5865 5864 5863 5862 5860 5857 5854 5850 5847 5843 5839 5835 5832 5830 5828 5824
5856 5858 5861 5862 5863 5865 5866 5868 5869 5870 5870 5871 5871 5872 5872 5873 5873 5873 5873 5873 5873 5872 5871 5870 5868 5867 5865 5864 5862 5861 5859 5857 5854 5851 5847 5843 5839 5835 5832 5830 5827 5824 5821
5854 5856 5859 5860 5862 5864 5865 5866 5867 5867 5868 5869 5869 5870 5871 5871 5872 5872 5872 5872 5871 5871 5870 5869 5867 5865 5863 5862 5861 5859 5857 5855 5851 5848 5843 5840 5836 5832 5829 5827 5824 5821 5818
5852 5854 5856 5858 5860 5862 5863 5864 5864 5865 5866 5867 5868 5869 5869 5870 5870 5870 5870 5870 5869 5869 5868 5867 5865 5863 5861 5860 5859 5857 5855 5852 5849 5845 5841 5837 5833 5830 5827 5824 5821 5818 5815
5848 5852 5854 5856 5858 5860 5861 5862 5863 5863 5864 5865 5867 5867 5867 5868 5868 5868 5868 5868 5867 5867 5866 5865 5863 5861 5859 5858 5856 5854 5852 5849 5846 5843 5839 5835 5831 5828 5825 5822 5819 5816 5813
5845 5848 5851 5853 5856 5858 5859 5860 5861 5862 5863 5864 5865 5865 5866 5866 5866 5866 5866 5865 5865 5864 5863 5862 5861 5859 5857 5855 5853 5851 5849 5847 5843 5840 5836 5833 5829 5826 5823 5820 5817 5814 5810
5841 5844 5848 5850 5853 5855 5857 5858 5859 5860 5861 5862 5862 5863 5864 5864 5864 5864 5863 5862 5862 5861 5860 5859 5858 5856 5855 5852 5850 5848 5846 5844 5840 5837 5833 5830 5826 5823 5821 5818 5815 5812 5808
5836 5840 5844 5847 5849 5851 5854 5855 5856 5857 5858 5859 5860 5860 5861 5861 5861 5861 5860 5859 5858 5857 5856 5855 5854 5853 5851 5849 5847 5845 5843 5840 5837 5834 5830 5827 5824 5820 5817 5814 5812 5809 5805
5833 5837 5840 5843 5845 5848 5850 5851 5853 5854 5855 5856 5857 5856 5857 5857 5857 5857 5856 5855 5854 5854 5853 5852 5851 5849 5848 5846 5844 5842 5840 5837 5835 5830 5827 5824 5821 5818 5814 5811 5808 5805 5802
5828 5832 5835 5838 5841 5844 5846 5848 5849 5850 5851 5852 5853 5853 5853 5853 5852 5852 5852 5851 5850 5850 5849 5848 5847 5845 5844 5842 5840 5839 5836 5834 5832 5828 5825 5822 5818 5815 5811 5808 5805 5802 5798
5822 5827 5830 5834 5836 5839 5842 5844 5845 5846 5847 5848 5849 5850 5849 5849 5848 5848 5847 5847 5846 5845 5844 5843 5842 5841 5839 5837 5835 5834 5832 5829 5827 5825 5821 5818 5815 5812 5808 5805 5801 5798 5794
5817 5822 5825 5828 5831 5834 5837 5839 5840 5841 5843 5844 5845 5845 5845 5845 5844 5844 5843 5843 5842 5841 5839 5838 5837 5836 5834 5832 5831 5829 5827 5825 5822 5819 5817 5814 5811 5807 5804 5800 5798 5795 5791
5810 5815 5819 5823 5826 5829 5832 5834 5835 5836 5837 5838 5839 5840 5840 5840 5840 5839 5839 5838 5837 5836 5835 5834 5833 5831 5830 5827 5825 5824 5821 5819 5817 5814 5811 5809 5806 5803 5799 5795 5793 5790 5787
5803 5807 5811 5816 5820 5823 5825 5827 5828 5830 5832 5834 5834 5834 5834 5834 5835 5834 5834 5833 5832 5831 5830 5828 5827 5825 5824 5822 5820 5817 5815 5813 5811 5808 5806 5803 5800 5797 5794 5790 5787 5784 5782
5795 5802 5806 5809 5813 5815 5818 5820 5822 5824 5826 5827 5828 5828 5828 5829 5829 5828 5828 5827 5826 5825 5823 5822 5821 5819 5818 5816 5814 5811 5809 5807 5804 5802 5800 5797 5794 5791 5787 5784 5781 5779 5777
5791 5794 5797 5802 5806 5808 5810 5812 5814 5816 5818 5820 5821 5821 5821 5822 5822 5821 5821 5820 5819 5817 5816 5815 5814 5812 5810 5809 5807 5805 5803 5799 5796 5794 5792 5789 5787 5783 5780 5776 5774 5772 5770
5782 5788 5792 5795 5799 5801 5803 5803 5804 5805 5808 5810 5813 5813 5813 5814 5814 5815 5814 5812 5811 5810 5809 5808 5806 5805 5803 5801 5800 5798 5796 5794 5789 5787 5785 5782 5780 5776 5772 5769 5767 5765 5763
5777 5781 5786 5790 5791 5793 5792 5794 5795 5790 5798 5801 5802 5803 5804 5805 5806 5806 5806 5805 5803 5802 5801 5800 5798 5797 5795 5793 5791 5789 5787 5785 5783 5779 5776 5774 5771 5768 5765 5762 5759 5758 5756
5770 5774 5778 5781 5786 5787 5782 5784 5787 5788 5790 5790 5792 5793 5794 5794 5796 5798 5798 5797 5795 5794 5793 5792 5790 5788 5786 5784 5781 5779 5777 5775 5774 5772 5766 5764 5762 5760 5758 5755 5752 5751 5750
5764 5767 5770 5773 5779 5777 5773 5776 5777 5779 5783 5782 5781 5782 5783 5787 5787 5788 5788 5788 5787 5786 5785 5782 5780 5778 5776 5774 5772 5770 5767 5764 5762 5761 5760 5755 5752 5750 5749 5747 5745 5743 5740
5748 5756 5758 5761 5766 5765 5767 5768 5769 5772 5775 5773 5775 5776 5777 5778 5779 5779 5780 5779 5779 5776 5775 5772 5770 5768 5765 5763 5761 5759 5756 5754 5751 5748 5748 5746 5744 5741 5739 5736 5735 5733 5730